This is the latest recevied weather packets stored in our database for station/object N4ZIQ. If no packets are shown the sender has not sent any weather packets the latest 10 day(s).
| Time | Temp. | Humidity | Pressure | Rain* | Wind** | Luminosity | Snow |
|---|---|---|---|---|---|---|---|
| 1777833648 | 24.44° C | 69% | 1017.3 hPa | 0 mm | - | 462 W/m² | - |
| 1777833346 | 24.44° C | 71% | 1017.3 hPa | 0 mm | - | 1021 W/m² | - |
| 1777833064 | 24.44° C | 69% | 1017.4 hPa | 0 mm | - | 942 W/m² | - |
| 1777832748 | 24.44° C | 69% | 1017.5 hPa | 0 mm | - | 701 W/m² | - |
| 1777832444 | 23.89° C | 71% | 1017.7 hPa | 0 mm | - | 538 W/m² | - |
| 1777832158 | 23.33° C | 72% | 1017.8 hPa | 0 mm | - | 462 W/m² | - |
| 1777831848 | 23.33° C | 72% | 1017.9 hPa | 0 mm | - | 496 W/m² | - |
| 1777831544 | 22.78° C | 73% | 1018 hPa | 0 mm | - | 329 W/m² | - |
| 1777831255 | 22.78° C | 72% | 1018 hPa | 0 mm | - | 325 W/m² | - |
| 1777830946 | 22.78° C | 72% | 1018 hPa | 0 mm | - | 250 W/m² | - |
| 1777830645 | 22.78° C | 73% | 1017.9 hPa | 0 mm | - | 274 W/m² | - |
| 1777830352 | 22.78° C | 72% | 1017.9 hPa | 0 mm | - | 250 W/m² | - |
| 1777830046 | 22.78° C | 72% | 1017.9 hPa | 0 mm | - | 234 W/m² | - |
| 1777829745 | 22.78° C | 73% | 1017.9 hPa | 0 mm | - | 353 W/m² | - |
| 1777829457 | 22.78° C | 71% | 1017.9 hPa | 0 mm | - | 248 W/m² | - |
| 1777829146 | 23.33° C | 72% | 1017.9 hPa | 0 mm | - | 336 W/m² | - |
| 1777828845 | 23.33° C | 71% | 1017.9 hPa | 0 mm | - | 469 W/m² | - |
| 1777828570 | 23.33° C | 72% | 1017.8 hPa | 0 mm | - | 475 W/m² | - |
| 1777828245 | 22.78° C | 73% | 1017.9 hPa | 0 mm | - | 529 W/m² | - |
| 1777827947 | 22.78° C | 74% | 1018 hPa | 0 mm | - | 457 W/m² | - |
| 1777827663 | 22.78° C | 72% | 1018 hPa | 0 mm | - | 255 W/m² | - |
| 1777827347 | 22.78° C | 73% | 1018 hPa | 0 mm | - | 540 W/m² | - |
| 1777827048 | 22.78° C | 73% | 1018.3 hPa | 0 mm | - | 469 W/m² | - |
| 1777826750 | 22.22° C | 74% | 1018.3 hPa | 0 mm | - | 394 W/m² | - |
| 1777826444 | 22.22° C | 74% | 1018.4 hPa | 0 mm | - | 359 W/m² | - |
* Rain latest hour (hover to see other rain measurements)
** Current wind speed in m/s (hover to see current wind gust speed)